Location: Rowland
(34.5359°N, 79.2929°W)
Time: 17:00:09
(UTC+00:00)

A-11 Canister half - Pass Details

Date: 10 October 2022
Orbit: 1515 x 1684 km, 47.2° (Epoch: 06 December)

Event Time Altitude Azimuth Distance (km) Brightness Sun altitude
Rises 00:51:43 0° 257° (WSW) 4,875 12.7 -25.8°
Reaches altitude 10° 00:55:02 10° 262° (W) 3,868 12.0 -26.4°
Maximum altitude 01:04:35 52° 337° (NNW) 1,908 9.6 -28.4°
Enters shadow 01:10:10 26° 41° (NE) 2,726 10.0 -29.5°
